Regional Weather Roundup
Issued by NWS Charleston, SC

Current Version | Previous Version | Graphics & Text | Print | Product List | Glossary On
Versions: 1 2 3 4 5 6 7 8 9 10 11 12 13 14 15 16 17 18 19 20 21 22 23 24 25 26 27 28 29 30 31 32 33 34 35 36 37 38 39 40 41 42 43 44 45 46 47 48 49 50
000
ASUS42 KCHS 211210
RWRCHS
REGIONAL WEATHER ROUNDUP
NATIONAL WEATHER SERVICE CHARLESTON SC
800 AM EDT TUE OCT 21 2014

NOTE: "FAIR" INDICATES FEW OR NO CLOUDS BELOW 12,000 FEET WITH NO
SIGNIFICANT WEATHER AND/OR OBSTRUCTIONS TO VISIBILITY.

NOT ALL STATIONS ARE QUALITY CONTROLLED BY THE NATIONAL
WEATHER SERVICE. USE DATA WITH CAUTION...ESPECIALLY
DEWPOINT OBSERVATIONS.

SCZ027-030-031-034>040-042>050-211300-
...SOUTH CAROLINA...

CITY           SKY/WX    TMP DP  RH WIND       PRES   REMARKS
N CHARLESTON   PTCLDY    62  59  90 CALM      29.96S
6HR MIN TEMP:  60; 6HR MAX TEMP:  66;

WATERFRONT PRK   N/A     66 N/A N/A NW3         N/A
FORT JOHNSON   NOT AVBL
JOHNS ISLAND   MOSUNNY   63  63 100 CALM      29.96S
PINOPOLIS        N/A     64  61  88 W3        29.87F
MONCKS CORNER  FAIR      57  57 100 CALM      29.96S
SUMMERVILLE    FAIR      54  54 100 CALM      29.97S
BEAUFORT MCAS  CLEAR     61  59  93 CALM      29.97S
6HR MIN TEMP:  60; 6HR MAX TEMP:  67;

BEAUFORT ARPT  FAIR      61  61 100 CALM      29.96S FOG
HILTON HEAD IS FOG       63  63 100 CALM      29.98R VSB 1
GEORGETOWN     NOT AVBL
WALTERBORO     SUNNY     55 N/A N/A CALM      29.98R
ORANGEBURG     CLEAR     51  49  92 CALM      29.98R FOG
6HR MIN TEMP:  50; 6HR MAX TEMP:  57;

BARNWELL       FAIR      50  48  93 CALM      29.99R
AIKEN          FAIR      46  46 100 SW3       30.00S
MANNING        FAIR      52 N/A N/A CALM      29.97R
KINGSTREE      NOT AVBL
COLUMBIA       CLEAR     50  46  86 SW3       29.96R
6HR MIN TEMP:  50; 6HR MAX TEMP:  55;

SUMTER         CLEAR     52  51  95 CALM      29.95R
6HR MIN TEMP:  52; 6HR MAX TEMP:  59;

FLORENCE       CLEAR     51  49  92 SW3       29.95S
6HR MIN TEMP:  51; 6HR MAX TEMP:  57;

MYRTLE BEACH   CLEAR     59  54  82 W3        29.96R
N MYRTLE BEACH CLEAR     58  57  97 VRB3      29.95R
6HR MIN TEMP:  55; 6HR MAX TEMP:  59;


$$

GAZ063-065-086>088-099>101-113>116-118-119-134-136>141-150-211300-
...GEORGIA...

CITY           SKY/WX    TMP DP  RH WIND       PRES   REMARKS
SAVANNAH ARPT  PTCLDY    61  58  90 CALM      29.98R
6HR MIN TEMP:  59; 6HR MAX TEMP:  68; 6HR PCP:  0.32;

HUNTER AAF     CLEAR     60  60 100 NW2       29.96R
6HR MIN TEMP:  59; 6HR MAX TEMP:  68; 6HR PCP:  0.10;

FORT STEWART   CLEAR     59  58  95 CALM      29.97R
6HR MIN TEMP:  59; 6HR MAX TEMP:  66;

STATESBORO     NOT AVBL
SYLVANIA       SUNNY     56  55  98 CALM      29.99S
CLAXTON        FAIR      55  55 100 CALM      29.99R FOG
THOMSON        CLEAR     48  48 100 CALM      30.03S
AUGUSTA-BUSH   CLEAR     45  44  97 CALM      29.98R
6HR MIN TEMP:  44; 6HR MAX TEMP:  51;

AUGUSTA-DANIEL CLEAR     57  50  77 W5        29.98R
SWAINSBORO     FAIR      50  50 100 MISG      30.00S FOG
VIDALIA        CLEAR     55  54  94 CALM      29.99S
ALMA           CLEAR     56  54  93 CALM      29.98R FOG
6HR MIN TEMP:  53; 6HR MAX TEMP:  64;

WAYCROSS       CLEAR     62  60  95 CALM      29.98R
JESUP          FAIR      61  61 100 CALM      29.98R
BRUNSWICK      CLOUDY    61  59  94 CALM      29.98R VSB<1/4
SAINT SIMONS   CLEAR     62  62 100 N5        29.97R
6HR MIN TEMP:  61; 6HR MAX TEMP:  66;


$$

SCZ027-028-034-036>038-045-046-048>050-GAZ119-141-211300-
...LAKE AND SUPPLEMENTAL COASTAL OBSERVATIONS...

STATION/POSITION TIME  TEMP    WIND        PRES    WAVE   SWELL
                       AIR SEA DIR/SP/G            HT/PER HT/PER/DIR
                 (UTC) (F)     (DEG/KT/KT) (MB)    (FT/S) (FT/S/D)
UPR LAKE MARION  NOT AVBL
WINYAH BAY       1100   62     290/  4     1014.0S
LAKE MURRAY      1100   58     280/  1/  5 1014.2R
ACE BASIN NERRS  1100   62        CALM     1014.0S
FORT PULASKI     1200   66     330/  3/  4 1015.0R
SAPELO ISLAND    NOT AVBL

$$

ANZ835-935-AMZ111-154-330-350-352-354-374-450-454-472-211300-
...C-MAN AND BUOY OBSERVATIONS...

STATION/POSITION TIME  TEMP    WIND        PRES    WAVE   SWELL
                       AIR SEA DIR/SP/G            HT/PER HT/PER/DIR
                 (UTC) (F)     (DEG/KT/KT) (MB)    (FT/S) (FT/S/D)
FOLLY BEACH CMAN 1100   66     310/  4/  5 1014.7R
BUOY 41004       1200   73 79  250/  8/ 10 1013.6R   2/ 9   2/ 9
BUOY 41008       1200   72 76  350/ 10/ 12 1014.4R   2/ 9   2/100/ 9
5E ST. MARYS GA  1200      77                N/A     2/10
FRYING PAN BUOY  1200   73 75  310/  8/ 10 1014.4S   2/ 9   2/100/ 9
BUOY 41025       1200   69     300/ 12/ 16 1013.0S   4/ 5   2/150/ 6
CAPE LOOKOUT NC  1100   67     300/  7/  9 1013.9R
BUOY 41002       1137   70 80  150/ 14/ 16 1014.8F   4/ 8   3/100/ 8
BUOY 41010       1200   80 80  300/  6/  8 1014.4R   3/ 8   3/ 60/ 8
BUOY 41012       NOT AVBL
ST AUGUSTINE FL  1200   69     300/  6/  7 1015.1R
CAPERS NEARSHORE 1100   71     320/ 10/ 10   N/A
FRIPP NEARSHORE  NOT AVBL


$$



USA.gov is the U.S. government's official web portal to all federal, state and local government web resources and services.